Total_Precipitation_Accumulation
2.18 2.37 2.37 2.47 2.42 2.56 2.48 2.29 2.04 1.92 1.78 1.52 1.41 1.43 1.40 1.38 1.42 1.52 1.71 1.76 1.75 1.97 2.30 2.49 2.41 2.28 2.28 2.28 2.32 2.33 2.30 2.23 2.14 1.94 1.75 1.58 1.50 1.51 1.55 1.62 1.57 1.49 1.46
2.58 2.66 2.70 2.78 2.65 2.65 2.68 2.57 2.29 2.16 2.01 1.78 1.55 1.45 1.44 1.60 1.61 1.55 1.76 1.90 1.82 1.83 2.12 2.51 2.71 2.83 2.92 2.95 2.78 2.52 2.44 2.40 2.42 2.29 2.09 1.84 1.69 1.63 1.62 1.69 1.72 1.63 1.59
2.93 2.93 3.10 3.15 3.01 2.94 2.90 2.83 2.68 2.43 2.27 2.16 2.01 1.83 1.71 1.70 1.82 1.91 1.95 2.07 2.12 2.07 2.19 2.44 2.70 2.89 3.03 3.20 3.11 2.88 2.69 2.60 2.60 2.57 2.43 2.24 2.02 1.87 1.83 1.79 1.80 1.76 1.64
3.33 3.49 3.43 3.27 3.19 3.10 3.09 3.22 3.03 2.70 2.59 2.62 2.49 2.15 1.86 1.89 1.98 2.04 2.04 2.14 2.32 2.25 2.29 2.27 2.39 2.61 2.84 3.06 3.18 3.23 3.12 3.05 2.92 2.80 2.68 2.58 2.47 2.30 2.14 2.10 2.00 1.89 1.79
3.69 3.83 3.77 3.59 3.40 3.31 3.31 3.10 3.09 2.99 2.98 2.90 2.51 2.26 1.96 1.89 1.97 1.96 2.00 2.08 2.29 2.39 2.43 2.26 2.33 2.59 2.77 2.98 3.22 3.42 3.53 3.51 3.34 3.21 3.07 2.97 2.88 2.70 2.48 2.34 2.21 2.13 2.05
4.13 4.11 3.99 3.87 3.74 3.58 3.47 3.33 3.30 3.25 3.08 2.94 2.52 2.28 2.07 1.88 1.88 1.95 1.96 2.03 2.07 2.10 2.19 2.24 2.30 2.24 2.43 2.71 3.00 3.31 3.59 3.82 3.68 3.43 3.27 3.22 3.14 2.97 2.83 2.68 2.51 2.40 2.33
4.59 4.53 4.42 4.31 4.08 3.82 3.64 3.47 3.34 3.18 2.94 2.84 2.71 2.43 2.07 1.82 1.85 1.85 1.80 1.87 1.93 1.89 1.93 2.01 2.20 2.15 2.08 2.32 2.45 2.84 3.26 3.72 3.88 3.73 3.59 3.54 3.47 3.29 3.08 2.90 2.77 2.70 2.58
5.18 5.02 4.94 4.69 4.35 4.08 3.78 3.53 3.34 3.08 2.84 2.80 2.79 2.83 2.45 2.11 1.73 1.50 1.53 1.57 1.60 1.60 1.67 1.77 1.82 1.87 1.87 1.98 2.01 2.23 2.56 2.93 3.33 3.55 3.57 3.54 3.52 3.44 3.30 3.14 2.96 2.90 2.94
5.27 4.97 4.73 4.60 4.31 3.89 3.64 3.47 3.27 3.06 2.84 2.73 2.67 2.85 2.70 2.35 1.95 1.69 1.48 1.37 1.42 1.52 1.56 1.66 1.68 1.63 1.59 1.63 1.71 1.86 1.99 2.11 2.49 2.92 3.20 3.23 3.19 3.15 3.16 3.20 3.20 3.09 3.03
4.88 4.61 4.35 4.08 3.82 3.48 3.23 3.02 2.95 2.91 2.81 2.63 2.58 2.44 2.27 2.16 2.14 1.90 1.66 1.53 1.50 1.52 1.48 1.41 1.45 1.49 1.50 1.51 1.59 1.65 1.72 1.80 2.04 2.27 2.53 2.72 2.77 2.78 2.78 2.78 2.86 2.91 2.98
4.19 3.85 3.59 3.34 3.11 2.81 2.58 2.38 2.36 2.49 2.54 2.48 2.47 2.44 2.33 2.23 2.14 2.00 1.84 1.78 1.73 1.63 1.51 1.43 1.40 1.38 1.37 1.39 1.43 1.52 1.61 1.60 1.68 1.80 1.96 2.14 2.26 2.41 2.52 2.56 2.59 2.71 2.88
3.46 3.14 2.86 2.62 2.37 2.13 1.97 1.89 1.86 1.92 2.07 2.16 2.21 2.23 2.22 2.29 2.28 2.24 2.10 1.99 1.93 1.79 1.65 1.54 1.46 1.43 1.39 1.41 1.46 1.63 1.52 1.54 1.59 1.59 1.60 1.71 1.82 1.96 2.15 2.33 2.49 2.68 2.90
2.57 2.34 2.09 1.89 1.69 1.61 1.58 1.59 1.61 1.65 1.69 1.76 1.89 1.99 2.04 2.07 2.09 2.24 2.34 2.22 2.05 1.80 1.66 1.56 1.48 1.46 1.44 1.44 1.44 1.48 1.33 1.30 1.34 1.36 1.40 1.49 1.59 1.71 1.81 1.94 2.09 2.25 2.43
1.69 1.56 1.46 1.32 1.24 1.22 1.19 1.25 1.32 1.39 1.44 1.47 1.50 1.68 1.82 1.80 1.74 1.83 2.07 2.14 2.09 1.89 1.62 1.51 1.42 1.38 1.36 1.32 1.39 1.35 1.22 1.25 1.20 1.15 1.11 1.12 1.19 1.31 1.42 1.52 1.65 1.77 1.86
1.33 1.19 1.16 1.12 1.07 1.08 1.08 1.09 1.08 1.08 1.18 1.28 1.29 1.38 1.50 1.51 1.46 1.47 1.60 1.77 1.90 1.90 1.64 1.40 1.33 1.27 1.23 1.21 1.31 1.09 1.11 1.16 1.09 1.03 0.98 0.93 0.96 1.00 1.08 1.11 1.17 1.28 1.41
1.15 1.04 0.94 0.91 0.87 0.84 0.91 1.00 0.99 0.95 0.98 1.01 1.05 1.12 1.18 1.19 1.23 1.23 1.29 1.39 1.58 1.73 1.66 1.30 1.16 1.13 1.12 1.03 1.12 0.99 1.02 1.03 0.91 0.87 0.82 0.80 0.77 0.79 0.81 0.86 0.88 0.94 1.09
0.90 0.84 0.77 0.73 0.71 0.70 0.75 0.85 0.90 0.89 0.90 0.89 0.86 0.86 0.88 0.93 1.03 1.02 1.05 1.12 1.28 1.46 1.55 1.32 1.15 1.09 1.12 1.13 1.12 1.09 0.95 0.83 0.78 0.78 0.72 0.73 0.71 0.69 0.70 0.72 0.73 0.76 0.83
0.77 0.74 0.70 0.67 0.61 0.64 0.72 0.75 0.76 0.74 0.77 0.77 0.75 0.75 0.75 0.82 0.92 0.96 1.00 1.02 1.12 1.27 1.38 1.38 1.23 1.12 1.10 1.12 1.13 1.12 0.90 0.72 0.68 0.74 0.70 0.65 0.66 0.65 0.67 0.68 0.68 0.68 0.65
0.71 0.68 0.66 0.66 0.65 0.63 0.66 0.65 0.61 0.63 0.67 0.70 0.68 0.67 0.69 0.77 0.82 0.87 0.93 0.97 1.02 1.05 1.18 1.22 1.11 1.05 1.00 0.99 1.12 1.13 1.04 0.97 0.67 0.62 0.64 0.59 0.61 0.59 0.56 0.56 0.57 0.59 0.56
0.66 0.62 0.61 0.61 0.58 0.55 0.57 0.57 0.52 0.56 0.64 0.62 0.59 0.62 0.67 0.66 0.68 0.76 0.80 0.91 1.01 1.09 1.14 1.14 1.05 0.96 0.98 1.03 1.24 1.31 1.21 1.05 0.84 0.58 0.61 0.59 0.58 0.58 0.57 0.57 0.52 0.52 0.54
0.64 0.63 0.60 0.58 0.54 0.51 0.50 0.51 0.48 0.48 0.59 0.61 0.61 0.62 0.61 0.57 0.58 0.62 0.65 0.76 0.92 1.09 1.16 1.20 1.13 1.02 1.00 1.15 1.24 1.20 1.17 1.04 0.88 0.68 0.71 0.67 0.70 0.87 1.07 1.11 0.88 0.65 0.59
0.67 0.65 0.66 0.63 0.56 0.50 0.55 0.53 0.45 0.48 0.56 0.61 0.64 0.64 0.60 0.54 0.50 0.51 0.51 0.58 0.73 0.92 1.09 1.22 1.17 1.10 1.05 1.15 1.24 1.19 1.25 1.25 1.13 0.85 0.88 0.82 0.85 1.23 1.63 1.80 1.40 0.84 0.68
0.66 0.68 0.67 0.66 0.63 0.58 0.59 0.54 0.49 0.51 0.59 0.70 0.73 0.72 0.62 0.52 0.59 0.61 0.58 0.55 0.59 0.68 0.91 1.18 1.29 1.19 1.12 1.21 1.34 1.34 1.35 1.37 1.27 1.04 1.10 1.11 1.07 1.35 1.41 1.50 1.42 1.00 0.87
0.70 0.76 0.76 0.70 0.70 0.65 0.62 0.58 0.54 0.54 0.57 0.65 0.69 0.68 0.72 0.71 0.63 0.61 0.56 0.61 0.70 0.77 0.82 0.91 1.12 1.14 1.02 1.05 1.21 1.28 1.31 1.29 1.22 1.16 1.22 1.32 1.20 1.30 1.21 1.48 1.64 1.45 1.24
0.75 0.79 0.77 0.75 0.76 0.72 0.62 0.58 0.60 0.62 0.58 0.57 0.55 0.55 0.62 0.65 0.57 0.55 0.59 0.70 0.78 0.83 0.70 0.79 0.88 1.00 1.05 0.98 0.98 1.08 1.30 1.46 1.47 1.28 1.20 1.30 1.32 1.34 1.43 1.70 1.70 1.65 1.53
0.74 0.73 0.75 0.78 0.75 0.70 0.56 0.49 0.53 0.55 0.55 0.53 0.56 0.60 0.58 0.52 0.50 0.50 0.59 0.75 0.86 0.84 0.88 1.03 1.20 1.31 1.28 1.18 1.03 1.12 1.38 1.57 1.61 1.52 1.23 1.31 1.45 1.55 1.81 1.91 1.78 1.60 1.54